Flag for U.S.A. Weather past 2 weeks in Syracuse, New York, U.S.A.

Now
65 °F

Scattered clouds.


Feels Like: 65 °F
Forecast: 46 / 66 °F
Wind: 10 mph from West

Location: Syracuse Hancock International Airport

Current Time: Sep 17, 2014 at 12:08:18 PM

Latest Report: Sep 17, 2014 at 10:54 AM


Visibility: 10 mi

Pressure: 30.03 "Hg

Humidity: 52%

Dew point: 47 °F

Location of SyracuseLocation

Historic Weather in Syracuse — Graph

°F

Syracuse temperature yesterday

Maximum temperature yesterday: 67 °F (at 2:54 PM)
Minimum temperature yesterday: 51 °F (at 10:54 PM)
Average temperature yesterday: 59 °F

Past Weeks' High & Low Weather Summary

 TemperatureHumidityPressure
High90 °F (Sep 5, 2:54 PM)100% (Sep 2, 9:54 PM)30.34 "Hg (Sep 2, 9:54 PM)
Low44 °F (Sep 13, 3:54 AM)38% (Sep 7, 2:54 PM)29.63 "Hg (Sep 11, 8:54 AM)
Average65 °F72%30.07 "Hg
* Reported Sep 2 10:54 AM — Sep 17 10:54 AM, Syracuse, Weather by CustomWeather, © 2014

Note: Actual official high and low records may vary slightly from our data, if they occured in-between our weather recording intervals... More about our weather records

Advertising

Syracuse weather history for previous 24 hours

 ConditionsComfort  
Time TempWeatherWind HumidityBarometerVisibility
10:54 AM
Sep 17
65 °FScattered clouds.10 mph52%30.03 "Hg10 mi
9:54 AM61 °FScattered clouds.3 mph65%30.04 "Hg10 mi
8:54 AM55 °FScattered clouds.No wind77%30.04 "Hg10 mi
7:54 AM49 °FScattered clouds.3 mph86%30.04 "Hg10 mi
6:54 AM47 °FLight fog.No wind90%30.03 "Hg10 mi
5:54 AM47 °FClear.No wind86%30.03 "Hg10 mi
4:54 AM50 °FClear.5 mph83%30.03 "Hg10 mi
3:54 AM51 °FPassing clouds.No wind80%30.02 "Hg10 mi
2:54 AM50 °FPartly cloudy.3 mph86%30.03 "Hg10 mi
1:54 AM49 °FClear.3 mph86%30.03 "Hg10 mi
12:54 AM50 °FClear.No wind83%30.02 "Hg10 mi
11:54 PM
Sep 16
51 °FClear.3 mph80%30.02 "Hg10 mi
10:54 PM51 °FPassing clouds.3 mph86%30.03 "Hg10 mi
9:54 PM52 °FPassing clouds.No wind80%30.03 "Hg10 mi
8:54 PM56 °FPassing clouds.6 mph67%30.03 "Hg10 mi
7:54 PM57 °FPassing clouds.5 mph64%30.02 "Hg10 mi
6:54 PM61 °FScattered clouds.8 mph58%30.01 "Hg10 mi
5:54 PM65 °FScattered clouds.10 mph49%30.01 "Hg10 mi
4:54 PM66 °FScattered clouds.9 mph47%30.00 "Hg10 mi
3:54 PM67 °FBroken clouds.10 mph44%30.01 "Hg10 mi
2:54 PM67 °FPartly sunny.15 mph44%30.00 "Hg10 mi
1:54 PM65 °FScattered clouds.15 mph52%30.01 "Hg10 mi
12:54 PM65 °FScattered clouds.16 mph56%30.02 "Hg10 mi
Weather by CustomWeather, © 2014

See weather overviewHow to use our weather pages